Weather History for EHRD - January, 2014

Change the Weather History Date:

Saturday, January 11, 2014

  Actual Average Record
Temperature  
Mean Temperature 41 °F -  
Max Temperature 47 °F 42 °F 51 °F (2005)
Min Temperature 35 °F 33 °F 15 °F (2003)
Degree Days  
Heating Degree Days 24    
Moisture  
Dew Point 38 °F    
Average Humidity 85    
Maximum Humidity 93    
Minimum Humidity 64    
Precipitation  
Precipitation 0.00 in - - ()
Sea Level Pressure  
Sea Level Pressure 30.02 in    
Wind  
Wind Speed 12 mph ()    
Max Wind Speed 20 mph    
Max Gust Speed 31 mph    
Visibility 6.5 miles    
Events Rain    
Averages and records for this station are not official NWS values.
T = Trace of Precipitation, MM = Missing Value Source: Averaged Metar Reports

Daily Weather History Graph

Daily Weather History Graph

Search for Another Location

Airport or City:

Trip Planner

Search our weather history database for the weather conditions in past years. The results will help you decide how hot, cold, wet, or windy it might be!

Date:

Astronomy

Jan. 11, 2014 Rise Set
Actual Time 8:46 AM CET 4:54 PM CET
Civil Twilight 8:06 AM CET 5:33 PM CET
Nautical Twilight 7:24 AM CET 6:16 PM CET
Astronomical Twilight 6:43 AM CET 6:57 PM CET
Moon 1:34 PM CET (1/11) 4:28 AM CET (1/11)
Length of Visible Light 9h 27m
Length of Day
8h 08m
Waxing Gibbous, 81% of the Moon is Illuminated
Jan 11
Waxing Gibbous
Jan 16
Full
Jan 24
Last Quarter
Jan 30
New
Feb 6
First Quarter

Hourly Weather History & Observations

Time (CET) Temp. Windchill Dew Point Humidity Pressure Visibility Wind Dir Wind Speed Gust Speed Precip Events Conditions
12:00 AM 42 °F - 39 °F 87% 29.99 in 5 mi SSW 13.4 mph - -   Mist
12:25 AM 42.8 °F 35.1 °F 39.2 °F 87% 29.98 in 4.3 mi SSW 16.1 mph - N/A   Overcast
12:55 AM 42.8 °F 36.2 °F 39.2 °F 87% 29.98 in 3.1 mi SSW 12.7 mph - N/A   Mostly Cloudy
1:00 AM 42 °F - 39 °F 86% 29.98 in 3 mi SSW 13.4 mph - -   Mist
1:25 AM 42.8 °F 35.4 °F 39.2 °F 87% 29.95 in 3.7 mi SSW 15.0 mph - N/A   Mostly Cloudy
1:55 AM 41.0 °F 33.5 °F 39.2 °F 93% 29.95 in 3.7 mi SSW 13.8 mph - N/A   Scattered Clouds
2:00 AM 41 °F - 39 °F 89% 29.96 in 4 mi SSW 15.7 mph - -   Mist
2:25 AM 41.0 °F 33.1 °F 39.2 °F 93% 29.95 in 3.7 mi SSW 15.0 mph - N/A   Mostly Cloudy
2:55 AM 41.0 °F 34.3 °F 39.2 °F 93% 29.95 in 4.3 mi SSW 11.5 mph - N/A   Scattered Clouds
3:00 AM 41 °F - 39 °F 88% 29.96 in 4 mi SSW 11.2 mph - -   Mist
3:25 AM 41.0 °F 33.5 °F 39.2 °F 93% 29.95 in 3.1 mi SSW 13.8 mph - N/A   Overcast
3:55 AM 41.0 °F 33.5 °F 39.2 °F 93% 29.95 in 3.7 mi SSW 13.8 mph - N/A   Overcast
4:00 AM 41 °F - 38 °F 87% 29.96 in 4 mi SW 15.7 mph - -   Mist
4:25 AM 41.0 °F 32.2 °F 39.2 °F 93% 29.95 in 4.3 mi SW 18.4 mph - N/A   Overcast
4:55 AM 41.0 °F 33.5 °F 39.2 °F 93% 29.95 in 3.7 mi SSW 13.8 mph - N/A   Overcast
5:00 AM 41 °F - 38 °F 86% 29.95 in 3 mi SSW 15.7 mph - -   Mist
5:25 AM 41.0 °F 33.9 °F 39.2 °F 93% 29.95 in 3.1 mi SSW 12.7 mph - N/A   Overcast
5:55 AM 41.0 °F 33.1 °F 39.2 °F 93% 29.92 in 3.1 mi SSW 15.0 mph - N/A   Overcast
6:00 AM 41 °F - 38 °F 87% 29.94 in 3 mi SSW 15.7 mph - -   Mist
6:25 AM 41.0 °F 33.5 °F 37.4 °F 87% 29.92 in 3.1 mi South 13.8 mph - N/A   Overcast
6:55 AM 41.0 °F 33.1 °F 37.4 °F 87% 29.92 in 3.1 mi SSW 15.0 mph - N/A   Overcast
7:00 AM 40 °F - 38 °F 89% 29.94 in 3 mi SSW 15.7 mph - -   Mist
7:25 AM 41.0 °F 33.9 °F 37.4 °F 87% 29.92 in 3.1 mi SSW 12.7 mph - N/A   Light Drizzle
7:55 AM 41.0 °F 33.5 °F 39.2 °F 93% 29.92 in - SSW 13.8 mph - N/A   Light Drizzle
8:00 AM 40 °F - 38 °F 92% 29.94 in 3 mi SSW 13.4 mph - - Rain Light Rain
8:25 AM 41.0 °F 33.1 °F 39.2 °F 93% 29.92 in - SSW 15.0 mph - N/A   Overcast
8:55 AM 41.0 °F 33.1 °F 39.2 °F 93% 29.92 in - SSW 15.0 mph - N/A   Light Drizzle
9:00 AM 40 °F - 38 °F 92% 29.94 in 3 mi SSW 13.4 mph - - Rain Rain
9:25 AM 41.0 °F 33.5 °F 39.2 °F 93% 29.92 in - SSW 13.8 mph - N/A   Light Drizzle
9:55 AM 41.0 °F 32.8 °F 39.2 °F 93% 29.92 in - SSW 16.1 mph - N/A   Mostly Cloudy
10:00 AM 41 °F - 39 °F 92% 29.93 in 2 mi SSW 15.7 mph - - Rain Light Drizzle
10:25 AM 41.0 °F 32.2 °F 39.2 °F 93% 29.92 in - SSW 18.4 mph - N/A Rain Light Rain
10:55 AM 42.8 °F 35.1 °F 41.0 °F 93% 29.92 in - SSW 16.1 mph - N/A   Overcast
11:00 AM 43 °F - 41 °F 88% 29.94 in 3 mi SSW 15.7 mph - - Rain Rain
11:25 AM 42.8 °F 34.3 °F 41.0 °F 93% 29.92 in - SW 19.6 mph 31.1 mph N/A   Light Drizzle
11:55 AM 44.6 °F 37.4 °F 42.8 °F 93% 29.95 in - WSW 16.1 mph - N/A   Light Drizzle
12:00 PM 45 °F - 43 °F 90% 29.95 in 3 mi WSW 15.7 mph - - Rain Rain
12:25 PM 44.6 °F 37.4 °F 42.8 °F 93% 29.95 in 4.3 mi WSW 16.1 mph - N/A   Mostly Cloudy
12:55 PM 46.4 °F 40.4 °F 42.8 °F 87% 29.95 in 6.2 mi West 13.8 mph - N/A   Mostly Cloudy
1:00 PM 46 °F - 40 °F 74% 29.97 in 17 mi WNW 17.9 mph - -   Partly Cloudy
1:25 PM 46.4 °F 39.2 °F 41.0 °F 81% 29.98 in 6.2 mi WNW 18.4 mph 29.9 mph N/A   Mostly Cloudy
1:55 PM 46.4 °F 40.1 °F 39.2 °F 76% 29.98 in 6.2 mi WNW 15.0 mph 26.5 mph N/A   Partly Cloudy
2:00 PM 47 °F - 40 °F 69% 29.99 in 11 mi WNW 13.4 mph - -   Scattered Clouds
2:25 PM 46.4 °F 40.1 °F 41.0 °F 81% 29.98 in 6.2 mi WNW 15.0 mph - N/A   Scattered Clouds
2:55 PM 46.4 °F 40.7 °F 37.4 °F 71% 30.01 in 6.2 mi WNW 12.7 mph - N/A   Partly Cloudy
3:00 PM 46 °F - 38 °F 65% 30.02 in 12 mi WNW 15.7 mph - -   Scattered Clouds
3:25 PM 46.4 °F 40.4 °F 39.2 °F 76% 30.01 in 6.2 mi WNW 13.8 mph - N/A   Mostly Cloudy
3:55 PM 44.6 °F 38.8 °F 37.4 °F 76% 30.04 in 6.2 mi WNW 11.5 mph - N/A   Scattered Clouds
4:00 PM 45 °F - 37 °F 64% 30.05 in 12 mi WNW 13.4 mph - -   Scattered Clouds
4:25 PM 44.6 °F 38.4 °F 37.4 °F 76% 30.06 in 6.2 mi West 12.7 mph - N/A   Scattered Clouds
4:55 PM 42.8 °F 36.6 °F 35.6 °F 76% 30.06 in 6.2 mi WNW 11.5 mph - N/A   Partly Cloudy
5:00 PM 43 °F - 36 °F 69% 30.09 in 13 mi WNW 11.2 mph - -   Scattered Clouds
5:25 PM 42.8 °F 36.2 °F 35.6 °F 76% 30.09 in 6.2 mi WNW 12.7 mph - N/A   Partly Cloudy
5:55 PM 42.8 °F 36.6 °F 35.6 °F 76% 30.09 in 6.2 mi WNW 11.5 mph - N/A   Partly Cloudy
6:00 PM 42 °F - 34 °F 66% 30.12 in 19 mi WNW 11.2 mph - -   Scattered Clouds
6:25 PM 41.0 °F 34.7 °F 33.8 °F 76% 30.12 in 6.2 mi WNW 10.4 mph - N/A   Unknown
6:55 PM 41.0 °F 35.8 °F 35.6 °F 81% 30.12 in 6.2 mi WNW 8.1 mph - N/A   Partly Cloudy
7:00 PM 40 °F - 35 °F 75% 30.14 in 13 mi WNW 6.7 mph - -   Partly Cloudy
7:25 PM 39.2 °F 34.2 °F 33.8 °F 81% 30.12 in 6.2 mi WNW 6.9 mph - N/A   Unknown
7:55 PM 41.0 °F 37.1 °F 35.6 °F 81% 30.15 in 6.2 mi West 5.8 mph - N/A   Mostly Cloudy
8:00 PM 41 °F - 36 °F 76% 30.16 in 17 mi West 6.7 mph - -   Partly Cloudy
8:25 PM 41.0 °F 35.8 °F 35.6 °F 81% 30.15 in 6.2 mi WNW 8.1 mph - N/A   Scattered Clouds
8:55 PM 39.2 °F 34.2 °F 35.6 °F 87% 30.15 in 6.2 mi West 6.9 mph - N/A   Scattered Clouds
9:00 PM 40 °F - 36 °F 80% 30.19 in 18 mi West 6.7 mph - -   Scattered Clouds
9:25 PM 41.0 °F 35.8 °F 35.6 °F 81% 30.18 in 6.2 mi West 8.1 mph - N/A   Partly Cloudy
9:55 PM 39.2 °F 34.2 °F 35.6 °F 87% 30.18 in 6.2 mi West 6.9 mph - N/A   Unknown
10:00 PM 38 °F - 35 °F 85% 30.20 in 16 mi West 6.7 mph - -  
10:25 PM 39.2 °F 35.9 °F 35.6 °F 87% 30.18 in 6.2 mi West 4.6 mph - N/A   Unknown
10:55 PM 37.4 °F 32.8 °F 33.8 °F 87% 30.21 in 6.2 mi West 5.8 mph - N/A   Unknown
11:00 PM 37 °F - 33 °F 82% 30.22 in 16 mi West 4.5 mph - -  
11:25 PM 35.6 °F 30.7 °F 32.0 °F 87% 30.21 in 6.2 mi WSW 5.8 mph - N/A   Unknown
11:55 PM 35.6 °F 31.7 °F 32.0 °F 87% 30.21 in 6.2 mi West 4.6 mph - N/A   Unknown